Regional Weather Roundup
Issued by NWS Sioux Falls, SD

Home | Current Version | Previous Version | Graphics & Text | Print | Product List | Glossary On
Versions: 1 2 3 4 5 6 7 8 9 10 11 12 13 14 15 16 17 18 19 20 21 22 23 24 25 26 27 28 29 30 31 32 33 34 35 36 37 38 39 40 41 42 43 44 45 46 47 48 49 50
000
ASUS43 KFSD 270102
RWRFSD

WEATHER ROUNDUP FOR SE SOUTH DAKOTA/SW MINNESOTA/NW IOWA
NATIONAL WEATHER SERVICE SIOUX FALLS SD
800 PM CDT THU APR 26 2018

NOTE: "FAIR" INDICATES FEW OR NO CLOUDS BELOW 12,000 FEET WITH NO
SIGNIFICANT WEATHER AND OR OBSTRUCTIONS TO VISIBILITY.


SDZ038>040-050-052>070-270200-
SOUTHEAST SOUTH DAKOTA

CITY           SKY/WX    TMP DP  RH WIND       PRES   REMARKS
BROOKINGS      CLEAR     53  33  46 N7        30.02F
CHAMBERLAIN    CLEAR     61  31  32 NW7       30.06F
HURON          CLEAR     59  34  39 NW12      30.01F
MADISON        FAIR      52  37  58 N7        30.03F
MITCHELL       CLEAR     59  36  42 NW8       30.04F
SIOUX FALLS    CLEAR     54  31  41 N9        30.03F
WINNER         FAIR      62  30  29 N7        30.08F
YANKTON        CLEAR     57  32  38 NW9       30.05F
$$

MNZ071-072-080-081-089-090-097-098-270200-
SOUTHWEST MINNESOTA

CITY           SKY/WX    TMP DP  RH WIND       PRES   REMARKS
FAIRMONT       CLEAR     51  33  50 NW22G28   29.97R
JACKSON        CLEAR     50  32  50 NW21G28   30.00S
LUVERNE        CLEAR     54  28  37 N10G17    30.03S
MARSHALL       CLEAR     52  38  58 N9        30.01S
MONTEVIDEO     CLEAR     54  36  50 NE12      30.00S
PIPESTONE      CLEAR    N/A N/A N/A N9        30.02F
REDWOOD FALLS  CLEAR     53  28  38 NW15      29.98S
TRACY          CLEAR     52  38  58 N8        30.01R
WINDOM         CLEAR     50  28  43 NW15      30.00S
WORTHINGTON    CLEAR     50  37  61 N13       30.02S
$$

IAZ001>003-012>014-020>022-031-032-NEZ013-014-SDZ071-270200-
NORTHWEST IOWA

CITY           SKY/WX    TMP DP  RH WIND       PRES   REMARKS
CHEROKEE       CLEAR     56  32  41 N10G21    30.01R
DENISON        CLEAR     57  28  33 N14G21    30.02R
ESTHERVILLE    CLEAR     50  35  56 NW20      29.98S
LE MARS        CLEAR     57  28  33 N15G22    30.03R
ORANGE CITY    CLEAR     57  34  41 N15       30.03R
SHELDON        CLEAR     55  32  41 NW14G20   30.00S
SIOUX CITY     CLEAR     58  29  33 N22G29    30.02S
SPENCER        CLEAR     54  35  48 N16       30.00S
STORM LAKE     CLEAR     54  32  43 N17       30.00S
$$

ABBREVIATIONS USED IN REMARKS
   TC - TEMPERATURE IN CELSIUS
  WCI - WIND CHILL INDEX
   HX - HEAT INDEX
  VSB - VISIBILITY





USA.gov is the U.S. government's official web portal to all federal, state and local government web resources and services.